Wind_Speed
19 10 15 10 8 13 7 3 1 5 6 8 11 13 22 34 29 39 47 50 57 58 62 64 62 62 60 58 54 51 48 42
21 10 21 12 8 3 1 14 16 5 5 10 7 12 11 22 34 43 51 57 56 56 63 61 63 63 61 58 56 52 49 44
5 14 18 10 11 4 5 8 11 4 16 8 11 9 9 18 41 47 51 56 50 56 59 63 61 61 61 60 57 54 51 46
26 11 14 20 13 11 8 8 8 17 24 5 9 9 10 20 35 45 51 47 54 53 53 54 57 58 60 60 59 56 51 47
8 9 8 8 14 19 6 4 16 9 6 6 7 6 12 10 19 14 28 34 45 46 47 56 57 59 59 60 60 56 53 48
19 16 6 6 16 16 19 14 13 21 8 5 4 4 7 22 31 35 35 32 34 44 52 57 59 60 59 60 59 57 54 50
15 16 21 14 11 21 23 23 22 21 10 10 10 9 12 26 24 30 27 21 26 35 42 55 57 57 59 59 59 58 57 52
7 13 24 24 21 22 22 23 20 7 7 10 15 21 14 23 23 22 35 32 26 45 50 60 60 60 59 59 57 58 58 55
6 6 20 20 30 15 13 11 15 14 9 10 8 10 11 17 18 27 30 38 40 49 52 56 64 60 59 59 58 58 57 56
6 8 20 13 19 20 9 7 10 12 13 12 16 29 30 18 20 20 15 7 19 39 50 56 59 58 56 57 58 58 56 56
4 4 6 4 6 13 9 12 8 9 8 8 12 11 5 9 15 16 20 25 12 21 39 46 54 57 56 55 56 56 56 55
6 4 6 5 4 11 7 2 3 9 9 8 9 5 4 8 8 8 19 23 21 19 27 44 46 52 56 56 56 56 56 55
12 8 9 4 4 4 9 7 3 6 9 8 6 6 8 4 2 3 6 12 17 25 30 28 30 44 47 50 55 50 50 55
2 6 7 28 20 8 7 7 18 15 13 21 19 17 16 11 6 5 6 8 12 17 27 38 35 36 39 52 47 49 54 53
6 5 11 31 15 13 23 25 12 19 18 22 22 20 15 14 14 10 7 10 14 18 21 35 40 42 42 44 45 49 53 50
5 2 12 29 30 21 23 27 22 22 22 24 28 24 21 16 11 5 3 3 13 20 25 31 37 45 47 45 45 52 50 47
2 5 14 22 29 17 21 24 24 23 26 24 25 24 22 20 16 10 2 1 4 13 19 20 28 45 47 48 50 52 47 44
3 6 3 7 22 21 27 25 24 25 26 22 21 21 18 18 14 11 6 2 3 5 11 10 8 7 40 39 41 43 45 47
6 5 8 17 32 32 33 30 27 25 22 22 20 18 18 19 16 11 8 6 5 10 10 15 30 22 32 44 41 40 42 42
Wind_Direction
218 207 194 229 190 202 194 201 304 230 256 276 227 226 214 214 204 196 200 204 210 211 215 213 214 218 218 217 218 220 220 222
238 217 239 196 176 223 240 222 238 255 238 231 213 233 214 205 203 197 199 206 210 208 213 215 218 221 220 221 218 220 221 221
199 221 219 208 209 213 191 201 229 240 251 191 232 231 210 214 200 198 197 206 207 209 213 219 217 217 220 221 220 218 221 220
231 214 209 224 214 186 212 233 236 229 245 128 204 240 233 203 207 203 202 199 207 212 209 208 210 214 220 221 222 222 220 220
291 276 235 206 224 216 129 128 221 210 260 201 206 289 170 187 203 217 213 202 206 205 202 211 211 214 219 222 222 224 220 220
234 224 182 192 217 212 210 217 222 231 217 277 276 256 272 259 253 224 207 213 215 206 206 213 217 216 220 221 223 223 223 219
273 265 210 201 195 214 216 218 210 231 199 220 241 237 241 277 251 209 194 191 192 210 206 211 214 214 219 222 221 223 223 222
282 255 229 217 220 226 219 219 227 195 209 185 221 233 238 240 259 227 189 202 224 216 213 214 216 217 218 219 222 222 223 225
277 283 215 231 218 203 213 213 208 211 196 194 203 199 214 248 225 224 218 210 212 209 209 208 213 219 218 220 222 222 223 226
276 305 208 217 211 220 192 217 211 224 209 197 208 223 230 243 242 203 161 159 217 203 209 214 217 218 222 219 219 222 222 224
257 268 266 186 175 179 170 240 204 196 213 217 194 121 75 234 205 216 234 242 227 224 214 216 210 217 218 217 219 221 223 225
263 310 254 210 175 135 124 227 310 146 149 147 138 116 233 140 158 199 224 239 232 227 213 216 213 218 217 219 220 222 226 230
253 258 275 298 207 126 122 216 86 100 126 128 106 137 134 148 127 162 201 225 238 230 221 226 219 221 219 224 225 230 233 233
279 262 259 341 317 157 169 127 124 112 117 105 109 105 97 118 148 198 228 246 247 255 236 223 216 218 228 227 229 231 231 228
156 241 319 314 315 59 124 121 114 116 122 120 110 106 105 96 97 114 174 218 232 247 246 242 244 230 227 225 227 230 227 227
55 106 346 357 3 24 84 101 110 123 128 124 116 112 109 110 109 102 88 224 234 230 236 247 243 234 230 230 226 223 219 222
346 350 315 350 6 34 62 84 93 101 109 112 118 111 112 111 110 113 104 354 265 250 241 242 249 241 233 228 219 209 207 209
99 286 276 358 30 56 61 71 80 86 85 89 101 103 101 94 95 100 112 144 269 353 353 294 264 302 217 211 205 201 194 196
109 137 128 73 72 64 64 63 71 74 77 81 75 80 87 83 80 86 79 46 326 303 302 304 299 252 271 178 189 195 190 184
Height
1411 1412 1419 1434 1448 1438 1467 1465 1479 1457 1438 1421 1415 1417 1416 1421 1428 1432 1439 1443 1442 1447 1454 1458 1464 1468 1474 1483 1491 1497 1503 1508
1403 1406 1407 1417 1421 1448 1460 1473 1478 1459 1448 1433 1419 1414 1411 1412 1416 1420 1426 1430 1431 1437 1443 1449 1454 1460 1468 1474 1480 1488 1495 1500
1400 1405 1410 1413 1421 1426 1428 1440 1456 1477 1430 1406 1408 1407 1408 1403 1401 1407 1411 1416 1424 1428 1433 1439 1446 1454 1460 1468 1475 1481 1487 1493
1396 1383 1384 1392 1403 1416 1430 1447 1436 1423 1398 1388 1394 1397 1395 1393 1397 1398 1400 1410 1417 1421 1428 1435 1440 1446 1451 1458 1467 1472 1479 1486
1403 1393 1386 1392 1386 1388 1412 1419 1421 1439 1416 1387 1391 1392 1389 1390 1396 1402 1405 1407 1413 1416 1424 1427 1432 1438 1444 1450 1456 1466 1473 1479
1384 1377 1377 1388 1379 1382 1389 1403 1408 1394 1405 1391 1391 1390 1392 1390 1388 1388 1394 1404 1406 1412 1416 1419 1424 1429 1435 1442 1448 1456 1463 1470
1377 1371 1360 1363 1370 1372 1378 1374 1386 1379 1399 1393 1388 1387 1384 1383 1388 1382 1388 1397 1400 1409 1412 1412 1416 1423 1429 1435 1440 1446 1453 1458
1379 1358 1352 1356 1357 1355 1357 1364 1368 1374 1382 1371 1370 1372 1374 1375 1380 1382 1377 1381 1395 1394 1397 1403 1409 1413 1420 1426 1431 1439 1446 1448
1397 1359 1349 1366 1333 1348 1351 1352 1359 1374 1371 1364 1366 1365 1366 1367 1372 1375 1375 1374 1380 1384 1388 1394 1399 1405 1411 1417 1423 1430 1437 1442
1400 1377 1374 1323 1319 1329 1347 1346 1347 1350 1352 1352 1353 1354 1358 1363 1365 1367 1369 1374 1376 1377 1381 1386 1391 1398 1403 1409 1415 1421 1427 1433
1403 1387 1347 1325 1322 1328 1343 1346 1340 1343 1343 1343 1345 1353 1358 1359 1360 1362 1365 1367 1369 1375 1378 1380 1386 1392 1398 1403 1408 1414 1419 1424
1390 1392 1373 1329 1314 1310 1326 1358 1333 1333 1338 1340 1343 1367 1361 1355 1356 1358 1360 1361 1364 1369 1373 1378 1380 1385 1390 1394 1398 1401 1406 1411
1389 1387 1362 1325 1314 1309 1347 1357 1332 1334 1335 1335 1344 1349 1351 1353 1354 1354 1356 1359 1363 1367 1369 1372 1376 1381 1384 1388 1390 1394 1398 1402
1383 1386 1361 1333 1326 1326 1322 1329 1329 1334 1337 1335 1341 1345 1348 1350 1352 1353 1354 1357 1359 1361 1363 1368 1369 1372 1374 1377 1382 1387 1391 1395
1379 1376 1363 1349 1341 1321 1315 1320 1329 1331 1337 1338 1340 1343 1345 1347 1349 1352 1353 1354 1355 1357 1358 1358 1361 1361 1362 1366 1373 1377 1382 1387
1364 1368 1365 1356 1346 1340 1329 1327 1332 1334 1337 1341 1341 1344 1346 1348 1348 1349 1350 1351 1352 1351 1351 1350 1348 1350 1353 1356 1360 1363 1369 1376
1367 1367 1366 1361 1354 1349 1342 1337 1337 1339 1337 1342 1343 1345 1348 1348 1349 1350 1351 1351 1350 1348 1346 1344 1344 1341 1340 1343 1348 1350 1357 1369
1368 1375 1375 1367 1360 1354 1349 1347 1347 1345 1345 1349 1348 1348 1349 1350 1351 1351 1351 1351 1350 1351 1353 1350 1348 1352 1336 1330 1339 1348 1352 1355
1362 1372 1372 1366 1361 1358 1357 1358 1356 1355 1356 1355 1354 1355 1354 1355 1356 1355 1354 1353 1352 1350 1351 1348 1344 1332 1353 1323 1330 1341 1349 1355